Flag for U.S.A. Weather past 2 weeks in Vancouver, Washington, U.S.A.

Now
41 °F

Light rain. Overcast.


Feels Like: 39 °F
Forecast: 38 / 47 °F
Wind: 3 mph from Southwest

Location: Vancouver - Pearson Airpark

Current Time: Feb 1, 2015 at 5:39:34 AM

Latest Report: Feb 1, 2015 at 4:53 AM


Visibility: 8 mi

Pressure: 30.13 "Hg

Humidity: 80%

Dew point: 35 °F

Location of VancouverLocation

Historic Weather in Vancouver — Graph

°F

Vancouver temperature yesterday

Maximum temperature yesterday: 47 °F (at 2:53 PM)
Minimum temperature yesterday: 29 °F (at 3:53 AM)
Average temperature yesterday: 38 °F

Past Weeks' High & Low Weather Summary

 TemperatureHumidityPressure
High59 °F (Jan 17, 9:53 PM)100% (Jan 19, 9:53 PM)30.47 "Hg (Jan 19, 9:53 PM)
Low28 °F (Jan 21, 4:53 AM)60% (Jan 26, 2:53 PM)29.74 "Hg (Jan 17, 9:53 PM)
Average44 °F86%30.24 "Hg
* Reported Jan 17 3:53 AM — Feb 1 3:53 AM, Vancouver, Weather by CustomWeather, © 2014

Note: Actual official high and low records may vary slightly from our data, if they occured in-between our weather recording intervals... More about our weather records

Advertising

Vancouver weather history for previous 24 hours

 ConditionsComfort  
Time TempWeatherWind HumidityBarometerVisibility
3:53 AM
Feb 1
42 °FLight rain. Overcast.8 mph71%30.13 "Hg10 mi
2:53 AM42 °FClear.5 mph68%30.15 "Hg10 mi
1:53 AM42 °FClear.8 mph68%30.13 "Hg10 mi
12:53 AM38 °FClear.No wind86%30.13 "Hg10 mi
11:53 PM
Jan 31
37 °FClear.No wind86%30.12 "Hg10 mi
10:53 PM40 °FClear.No wind77%30.12 "Hg10 mi
9:53 PM42 °FClear.3 mph73%30.11 "Hg10 mi
8:53 PM42 °FClear.3 mph71%30.13 "Hg10 mi
7:53 PM42 °FClear.3 mph73%30.12 "Hg10 mi
6:53 PM43 °FClear.3 mph68%30.14 "Hg10 mi
5:53 PM44 °FClear.No wind68%30.14 "Hg10 mi
4:53 PM46 °FSunny.No wind66%30.14 "Hg10 mi
3:53 PM47 °FSunny.No wind66%30.14 "Hg10 mi
2:53 PM47 °FSunny.3 mph69%30.15 "Hg9 mi
1:53 PM45 °FSunny.No wind71%30.16 "Hg10 mi
12:53 PM40 °FPartly sunny.5 mph86%30.20 "Hg9 mi
11:53 AM40 °FPassing clouds.9 mph86%30.21 "Hg10 mi
10:53 AM36 °FFog.3 mph97%30.23 "Hg4 mi
9:53 AM34 °FFog.5 mph97%30.25 "Hg1 mi
8:53 AM32 °FIce fog.3 mph96%30.25 "Hg6 mi
8:01 AM32 °FLow clouds.N/A92%30.25 "Hg9 mi
6:53 AM32 °FFog.No wind100%30.24 "Hg0 mi
5:57 AM31 °FIce fog.No wind96%30.23 "Hg2 mi
Weather by CustomWeather, © 2014

See weather overviewHow to use our weather pages